period_start,C,m1,H,J0,J1,J2,J3,J4,J5,JA,JB,JC,JD,JJ,JK,JN,#
2014-04-25 00:00:55,0.10,1.82,0.00,14.62,22.33,23.71,6.14,30.46,997.57,2057.99,2756.99,2874.38,3073.03,350.85,327.94,19.41,0000 0000 0000 0000 000000
2014-04-25 00:01:55,0.05,1.82,0.00,14.65,22.32,23.75,6.25,30.42,997.57,2057.99,2756.95,2874.24,3073.01,349.84,326.98,19.42,0000 0000 0000 0000 000000
2014-04-25 00:02:56,0.06,1.82,0.00,14.69,22.32,23.74,6.16,30.25,997.57,2057.99,2756.74,2874.09,3073.00,350.15,327.21,19.43,0000 0000 0000 0000 000000
2014-04-25 00:03:56,0.07,1.82,0.00,14.74,22.33,23.73,6.35,30.33,997.57,2057.99,2756.46,2874.05,3073.00,350.91,328.20,19.43,0000 0000 0000 0000 000000
2014-04-25 00:04:56,0.05,1.82,0.00,14.82,22.33,23.69,5.96,30.38,997.57,2057.99,2756.31,2874.03,3073.00,349.52,326.55,19.44,0000 0000 0000 0000 000000
2014-04-25 00:05:56,0.02,1.82,0.00,14.87,22.33,23.74,6.23,30.21,997.57,2058.00,2756.19,2874.01,3073.00,350.09,327.29,19.44,0000 0000 0000 0000 000000
2014-04-25 00:06:57,0.03,1.82,0.00,14.88,22.33,23.82,6.02,30.50,997.57,2058.00,2756.09,2874.00,3072.99,350.45,327.27,19.45,0000 0000 0000 0000 000000
2014-04-25 00:07:57,0.02,1.82,0.00,14.92,22.33,23.84,6.21,30.42,997.56,2058.00,2756.04,2874.00,3072.99,350.27,327.07,19.46,0000 0000 0000 0000 000000
2014-04-25 00:08:57,0.00,1.82,0.00,14.96,22.33,23.83,6.14,29.96,997.56,2058.01,2756.02,2874.00,3072.98,349.58,326.38,19.46,0000 0000 0000 0000 000000
2014-04-25 00:09:57,0.01,1.82,0.00,14.97,22.34,23.87,6.10,30.46,997.57,2058.01,2756.01,2874.00,3072.96,350.11,326.86,19.47,0000 0000 0000 0000 000000
2014-04-25 00:10:57,0.01,1.82,0.00,14.98,22.34,23.88,6.21,30.42,997.55,2058.00,2756.00,2874.00,3072.90,349.43,325.63,19.47,0000 0000 0000 0000 000000
2014-04-25 00:11:58,0.00,1.82,0.00,14.98,22.34,23.87,6.27,30.50,997.57,2058.00,2756.00,2873.99,3072.60,350.62,327.13,19.48,0000 0000 0000 0000 000000
2014-04-25 00:12:58,0.05,1.82,0.00,14.96,22.34,23.84,6.09,30.33,997.55,2058.00,2756.00,2873.99,3072.31,349.96,326.73,19.49,0000 0000 0000 0000 000000
2014-04-25 00:13:58,0.03,1.82,0.00,14.87,22.34,23.85,6.13,30.17,997.53,2058.02,2755.99,2873.98,3072.17,350.24,326.52,19.49,0000 0000 0000 0000 000000
2014-04-25 00:14:58,0.02,1.82,0.00,14.83,22.34,23.80,6.22,30.50,997.56,2058.01,2755.94,2873.95,3072.10,349.67,326.82,19.50,0000 0000 0000 0000 000000
2014-04-25 00:15:59,0.01,1.82,0.00,14.80,22.34,23.81,5.95,30.38,997.56,2058.01,2755.79,2873.90,3072.06,349.23,326.23,19.50,0000 0000 0000 0000 000000
2014-04-25 00:16:59,0.04,1.82,0.00,14.77,22.34,23.80,5.86,30.25,997.50,2058.00,2755.53,2873.80,3072.03,348.73,325.97,19.51,0000 0000 0000 0000 000000
2014-04-25 00:17:59,0.08,1.82,0.00,14.77,22.34,23.83,6.13,30.42,997.54,2058.00,2755.26,2873.65,3072.00,350.14,327.10,19.51,0000 0000 0000 0000 000000
2014-04-25 00:18:59,0.11,1.82,0.00,14.78,22.34,23.85,6.13,30.54,997.51,2058.02,2755.12,2873.40,3072.00,350.39,327.03,19.52,0000 0000 0000 0000 000000
2014-04-25 00:20:00,0.09,1.82,0.00,14.79,22.34,23.84,6.19,30.50,997.50,2058.01,2755.06,2873.21,3072.00,350.96,327.83,19.53,0000 0000 0000 0000 000000
2014-04-25 00:21:00,0.05,1.82,0.00,14.82,22.34,23.83,6.11,30.29,997.51,2058.00,2755.03,2873.12,3072.00,349.97,327.00,19.53,0000 0000 0000 0000 000000
2014-04-25 00:22:00,0.02,1.82,0.00,14.89,22.34,23.88,6.07,30.33,997.51,2058.01,2755.01,2873.07,3072.00,349.71,326.69,19.54,0000 0000 0000 0000 000000
2014-04-25 00:23:01,0.01,1.82,0.00,14.95,22.34,23.89,6.24,30.54,997.52,2058.00,2755.00,2873.02,3071.99,350.28,326.54,19.54,0000 0000 0000 0000 000000
2014-04-25 00:24:01,0.00,1.82,0.00,14.98,22.34,23.86,6.00,30.42,997.55,2058.00,2755.00,2873.00,3071.96,349.81,326.71,19.55,0000 0000 0000 0000 000000
2014-04-25 00:25:01,0.00,1.82,0.00,15.00,22.34,23.94,6.32,30.58,997.57,2058.01,2755.00,2873.00,3071.93,350.47,327.40,19.56,0000 0000 0000 0000 000000
2014-04-25 00:26:01,0.01,1.82,0.00,15.04,22.34,24.01,6.06,30.42,997.56,2058.01,2754.97,2873.00,3071.74,349.40,326.08,19.56,0000 0000 0000 0000 000000
2014-04-25 00:27:02,0.04,1.82,0.00,15.05,22.35,24.00,6.25,30.50,997.54,2058.00,2754.90,2873.00,3071.36,350.57,326.48,19.57,0000 0000 0000 0000 000000
2014-04-25 00:28:02,0.06,1.82,0.00,15.07,22.35,24.05,6.21,30.38,997.55,2058.00,2754.80,2873.00,3071.23,350.43,327.04,19.57,0000 0000 0000 0000 000000
2014-04-25 00:29:02,0.03,1.82,0.00,15.08,22.35,24.06,6.15,30.46,997.55,2058.00,2754.57,2872.99,3071.12,350.12,326.74,19.58,0000 0000 0000 0000 000000
2014-04-25 00:30:02,0.07,1.82,0.00,15.04,22.35,24.01,6.17,30.46,997.53,2058.01,2754.31,2872.98,3071.06,350.27,326.91,19.58,0000 0000 0000 0000 000000
2014-04-25 00:31:03,0.06,1.82,0.00,15.01,22.35,24.03,5.95,30.13,997.56,2058.01,2754.16,2872.96,3071.03,349.07,325.84,19.59,0000 0000 0000 0000 000000
2014-04-25 00:32:03,0.01,1.82,0.00,15.01,22.36,24.05,6.09,30.17,997.56,2058.00,2754.09,2872.94,3071.01,349.77,326.50,19.60,0000 0000 0000 0000 000000
2014-04-25 00:33:03,0.01,1.82,0.00,15.01,22.37,24.03,6.07,30.33,997.56,2058.01,2754.04,2872.87,3071.00,349.51,326.25,19.60,0000 0000 0000 0000 000000
2014-04-25 00:34:04,0.04,1.82,0.00,14.95,22.37,24.02,6.13,30.50,997.57,2058.00,2754.01,2872.66,3071.00,349.32,326.55,19.61,0000 0000 0000 0000 000000
2014-04-25 00:35:04,0.05,1.82,0.00,14.90,22.37,24.02,6.09,30.50,997.56,2058.00,2754.00,2872.37,3071.00,349.41,326.28,19.61,0000 0000 0000 0000 000000
2014-04-25 00:36:04,0.09,1.82,0.00,14.84,22.37,24.02,6.17,30.46,997.56,2058.00,2754.00,2872.18,3071.00,350.63,327.39,19.62,0000 0000 0000 0000 000000
2014-04-25 00:37:04,0.03,1.83,0.00,14.82,22.37,24.03,6.19,30.58,997.57,2058.01,2753.98,2872.10,3071.00,350.28,327.00,19.63,0000 0000 0000 0000 000000
2014-04-25 00:38:04,0.02,1.83,0.00,14.82,22.37,24.01,6.18,30.50,997.57,2058.01,2753.93,2872.04,3070.98,350.65,327.53,19.63,0000 0000 0000 0000 000000
2014-04-25 00:39:04,0.03,1.83,0.00,14.83,22.37,23.97,6.09,30.58,997.57,2058.00,2753.76,2872.01,3070.98,350.13,327.03,19.64,0000 0000 0000 0000 000000
2014-04-25 00:40:04,0.03,1.83,0.00,14.85,22.37,24.00,6.07,30.42,997.57,2058.00,2753.38,2872.00,3070.91,349.80,326.70,19.64,0000 0000 0000 0000 000000
2014-04-25 00:41:05,0.08,1.83,0.00,14.88,22.37,23.98,6.00,30.38,997.57,2058.00,2753.17,2872.00,3070.66,349.95,326.49,19.65,0000 0000 0000 0000 000000
2014-04-25 00:42:05,0.07,1.83,0.00,14.90,22.37,23.96,6.06,30.38,997.57,2058.00,2753.07,2872.00,3070.41,350.38,327.35,19.66,0000 0000 0000 0000 000000
2014-04-25 00:43:05,0.06,1.83,0.00,14.92,22.38,23.97,6.13,30.50,997.57,2058.00,2753.02,2871.98,3070.17,349.67,326.55,19.66,0000 0000 0000 0000 000000
2014-04-25 00:44:05,0.03,1.83,0.00,14.96,22.38,23.99,6.26,30.38,997.57,2058.00,2753.00,2871.97,3070.10,350.32,326.98,19.67,0000 0000 0000 0000 000000
2014-04-25 00:45:05,0.01,1.83,0.00,15.02,22.39,24.01,6.03,30.46,997.57,2058.00,2753.00,2871.95,3070.04,350.08,326.48,19.67,0000 0000 0000 0000 000000
2014-04-25 00:46:05,0.02,1.83,0.00,15.09,22.39,24.08,6.11,30.38,997.57,2058.00,2753.00,2871.95,3070.02,350.12,326.77,19.68,0000 0000 0000 0000 000000
2014-04-25 00:47:06,0.00,1.83,0.00,15.12,22.39,24.10,6.06,30.50,997.57,2058.00,2752.98,2871.91,3070.00,350.48,326.62,19.68,0000 0000 0000 0000 000000
2014-04-25 00:48:06,0.01,1.83,0.00,15.15,22.39,24.08,6.04,30.46,997.57,2058.00,2752.91,2871.74,3070.00,349.43,326.03,19.69,0000 0000 0000 0000 000000
2014-04-25 00:49:06,0.07,1.83,0.00,15.19,22.39,24.11,6.11,30.42,997.57,2058.00,2752.70,2871.42,3070.00,349.81,326.93,19.70,0000 0000 0000 0000 000000
2014-04-25 00:50:06,0.13,1.83,0.00,15.20,22.39,24.08,5.99,30.29,997.57,2058.00,2752.39,2871.20,3070.00,348.89,325.46,19.70,0000 0000 0000 0000 000000
2014-04-25 00:51:06,0.09,1.83,0.00,15.17,22.39,24.11,6.20,30.54,997.57,2058.00,2752.22,2871.11,3070.00,350.82,326.98,19.71,0000 0000 0000 0000 000000
2014-04-25 00:52:06,0.05,1.83,0.00,15.17,22.40,24.11,6.01,30.58,997.57,2058.00,2752.10,2871.05,3069.93,349.72,326.37,19.71,0000 0000 0000 0000 000000
2014-04-25 00:53:06,0.04,1.83,0.00,15.17,22.40,24.06,6.11,30.21,997.57,2058.00,2752.03,2871.03,3069.86,349.50,325.77,19.72,0000 0000 0000 0000 000000
2014-04-25 00:54:07,0.02,1.83,0.00,15.19,22.41,24.11,6.23,30.46,997.57,2058.00,2752.01,2871.00,3069.70,351.23,327.66,19.73,0000 0000 0000 0000 000000
2014-04-25 00:55:07,0.03,1.83,0.00,15.17,22.42,24.11,6.20,30.13,997.57,2058.00,2752.00,2871.00,3069.41,350.32,326.83,19.73,0000 0000 0000 0000 000000
2014-04-25 00:56:07,0.04,1.83,0.00,15.11,22.42,24.15,6.11,30.04,997.57,2058.00,2752.00,2870.98,3069.16,349.92,326.52,19.74,0000 0000 0000 0000 000000
2014-04-25 00:57:07,0.04,1.83,0.00,15.11,22.42,24.18,6.17,30.58,997.57,2058.00,2751.99,2870.95,3069.08,350.50,327.06,19.74,0000 0000 0000 0000 000000
2014-04-25 00:58:08,0.02,1.83,0.00,15.12,22.42,24.23,6.31,30.50,997.57,2058.00,2751.98,2870.93,3069.04,348.97,325.62,19.75,0000 0000 0000 0000 000000
2014-04-25 00:59:08,0.01,1.83,0.00,15.16,22.42,24.27,6.13,30.67,997.57,2058.00,2751.96,2870.95,3069.01,350.20,326.73,19.75,0000 0000 0000 0000 000000
2014-04-25 01:00:08,0.00,1.83,0.00,15.12,22.42,24.23,6.18,30.50,997.57,2058.00,2751.85,2870.82,3069.00,350.48,326.79,19.76,0000 0000 0000 0000 000000
2014-04-25 01:01:08,0.06,1.83,0.00,15.04,22.42,24.22,6.19,30.46,997.57,2058.00,2751.57,2870.61,3069.00,349.63,326.47,19.77,0000 0000 0000 0000 000000
2014-04-25 01:02:09,0.10,1.83,0.00,15.00,22.43,24.18,6.17,30.63,997.57,2058.00,2751.34,2870.45,3069.00,350.19,327.18,19.77,0000 0000 0000 0000 000000
2014-04-25 01:03:09,0.08,1.83,0.00,15.00,22.44,24.14,6.17,30.58,997.57,2058.00,2751.18,2870.30,3069.00,350.50,327.19,19.78,0000 0000 0000 0000 000000
2014-04-25 01:04:09,0.07,1.83,0.00,15.04,22.44,24.14,6.09,29.71,997.57,2058.00,2751.15,2870.22,3068.98,350.11,326.62,19.78,0000 0000 0000 0000 000000
2014-04-25 01:05:09,0.02,1.83,0.00,15.05,22.44,24.16,6.12,30.54,997.57,2058.00,2751.09,2870.12,3068.98,349.91,326.59,19.79,0000 0000 0000 0000 000000
2014-04-25 01:06:10,0.03,1.83,0.00,15.03,22.44,24.16,6.06,30.33,997.57,2058.00,2751.04,2870.07,3068.93,349.60,326.54,19.80,0000 0000 0000 0000 000000
2014-04-25 01:07:10,0.02,1.83,0.00,15.05,22.44,24.17,6.05,30.46,997.57,2058.00,2751.01,2870.05,3068.70,350.06,326.66,19.80,0000 0000 0000 0000 000000
2014-04-25 01:08:10,0.05,1.83,0.00,15.05,22.45,24.17,6.13,30.42,997.57,2058.00,2751.00,2870.01,3068.36,349.57,326.27,19.81,0000 0000 0000 0000 000000
2014-04-25 01:09:10,0.06,1.83,0.00,15.07,22.45,24.16,6.18,30.42,997.57,2058.00,2750.99,2870.00,3068.16,350.38,327.00,19.81,0000 0000 0000 0000 000000
2014-04-25 01:10:11,0.03,1.83,0.00,15.15,22.46,24.21,6.08,30.38,997.56,2058.00,2750.99,2870.00,3068.08,350.56,327.09,19.82,0000 0000 0000 0000 000000
2014-04-25 01:11:11,0.00,1.83,0.00,15.21,22.47,24.23,5.95,30.33,997.57,2058.00,2750.98,2869.99,3068.05,349.39,326.06,19.82,0000 0000 0000 0000 000000
2014-04-25 01:12:11,0.00,1.83,0.00,15.24,22.47,24.29,5.97,30.21,997.57,2058.00,2750.97,2869.95,3068.03,349.64,325.83,19.83,0000 0000 0000 0000 000000
2014-04-25 01:13:11,0.01,1.83,0.00,15.29,22.47,24.28,6.13,30.38,997.57,2057.99,2750.98,2869.95,3068.01,350.35,326.61,19.84,0000 0000 0000 0000 000000
2014-04-25 01:14:11,0.00,1.83,0.00,15.34,22.47,24.36,6.16,30.63,997.57,2057.99,2750.89,2869.92,3068.00,350.36,326.46,19.84,0000 0000 0000 0000 000000
2014-04-25 01:15:12,0.01,1.83,0.00,15.39,22.47,24.43,6.23,30.33,997.57,2057.98,2750.75,2869.78,3068.00,349.95,326.42,19.85,0000 0000 0000 0000 000000
2014-04-25 01:16:12,0.03,1.83,0.00,15.41,22.47,24.44,6.00,30.38,997.57,2057.98,2750.35,2869.44,3067.98,349.16,325.47,19.85,0000 0000 0000 0000 000000
2014-04-25 01:17:12,0.18,1.84,0.00,15.41,22.48,24.52,6.11,30.50,997.57,2057.99,2750.15,2869.26,3067.97,349.30,325.61,19.86,0000 0000 0000 0000 000000
2014-04-25 01:18:12,0.07,1.84,0.00,15.41,22.49,24.60,6.17,30.50,997.57,2057.97,2750.08,2869.15,3067.95,350.97,327.16,19.87,0000 0000 0000 0000 000000
2014-04-25 01:19:13,0.03,1.84,0.00,15.42,22.49,24.61,6.25,30.38,997.57,2057.97,2750.04,2869.08,3067.89,350.13,326.36,19.87,0000 0000 0000 0000 000000
2014-04-25 01:20:13,0.03,1.84,0.00,15.42,22.49,24.67,6.11,30.25,997.57,2057.98,2750.01,2869.04,3067.67,349.02,325.33,19.88,0000 0000 0000 0000 000000
2014-04-25 01:21:13,0.07,1.84,0.00,15.40,22.49,24.78,6.00,30.38,997.57,2057.99,2750.00,2869.01,3067.42,349.64,325.94,19.88,0000 0000 0000 0000 000000
2014-04-25 01:22:13,0.04,1.84,0.00,15.43,22.50,24.72,6.01,30.21,997.57,2057.98,2750.00,2869.00,3067.21,349.42,325.98,19.89,0000 0000 0000 0000 000000
2014-04-25 01:23:14,0.03,1.84,0.00,15.46,22.50,24.73,6.08,30.29,997.57,2057.98,2749.99,2869.00,3067.07,350.28,326.21,19.89,0000 0000 0000 0000 000000
2014-04-25 01:24:14,0.01,1.84,0.00,15.42,22.52,24.74,6.15,30.38,997.57,2057.97,2749.94,2869.00,3067.03,349.67,325.93,19.90,0000 0000 0000 0000 000000
2014-04-25 01:25:14,0.01,1.84,0.00,15.38,22.52,24.67,6.12,30.33,997.57,2057.98,2749.80,2869.00,3067.01,350.13,326.27,19.91,0000 0000 0000 0000 000000
2014-04-25 01:26:14,0.04,1.84,0.00,15.39,22.52,24.74,5.94,30.08,997.57,2057.98,2749.59,2868.99,3067.00,349.35,325.94,19.91,0000 0000 0000 0000 000000
2014-04-25 01:27:14,0.04,1.84,0.00,15.40,22.52,24.62,5.99,30.17,997.57,2057.99,2749.42,2868.97,3067.00,349.19,325.67,19.92,0000 0000 0000 0000 000000
2014-04-25 01:28:15,0.04,1.84,0.00,15.38,22.52,24.55,6.15,30.17,997.57,2057.98,2749.19,2868.92,3067.00,349.85,326.15,19.92,0000 0000 0000 0000 000000
2014-04-25 01:29:15,0.04,1.84,0.00,15.36,22.53,24.53,6.10,30.46,997.57,2057.98,2749.08,2868.91,3067.00,349.58,326.23,19.93,0000 0000 0000 0000 000000
2014-04-25 01:30:15,0.02,1.84,0.00,15.36,22.54,24.53,6.23,30.54,997.57,2057.98,2749.03,2868.81,3066.98,350.89,327.38,19.94,0000 0000 0000 0000 000000
2014-04-25 01:31:16,0.05,1.84,0.00,15.36,22.54,24.49,6.30,30.33,997.57,2057.99,2749.01,2868.42,3066.94,349.78,325.61,19.94,0000 0000 0000 0000 000000
2014-04-25 01:32:16,0.12,1.84,0.00,15.38,22.54,24.43,6.08,30.38,997.57,2057.98,2749.00,2868.24,3066.88,349.46,325.79,19.95,0000 0000 0000 0000 000000
2014-04-25 01:33:16,0.05,1.84,0.00,15.39,22.54,24.44,5.91,30.25,997.57,2057.98,2748.99,2868.13,3066.65,349.97,326.35,19.95,0000 0000 0000 0000 000000
2014-04-25 01:34:16,0.05,1.84,0.00,15.41,22.55,24.50,6.03,30.13,997.57,2057.94,2748.98,2868.05,3066.36,349.93,326.33,19.96,0000 0000 0000 0000 000000
2014-04-25 01:35:16,0.02,1.84,0.00,15.42,22.56,24.47,5.87,30.25,997.57,2057.88,2748.96,2868.01,3066.15,348.25,324.57,19.97,0000 0000 0000 0000 000000
2014-04-25 01:36:16,-0.01,1.84,0.00,15.42,22.57,24.57,6.02,30.04,997.57,2057.84,2748.82,2868.00,3066.06,349.46,326.19,19.97,0000 0000 0000 0000 000000
2014-04-25 01:37:17,0.02,1.84,0.00,15.41,22.57,24.50,6.03,30.17,997.57,2057.79,2748.44,2867.99,3066.02,350.34,326.90,19.98,0000 0000 0000 0000 000000
2014-04-25 01:38:17,0.03,1.84,0.00,15.33,22.57,24.47,6.16,30.50,997.57,2057.80,2748.20,2867.99,3066.00,350.11,326.45,19.98,0000 0000 0000 0000 000000
2014-04-25 01:39:17,0.05,1.84,0.00,15.29,22.58,24.46,6.27,30.38,997.57,2057.74,2748.09,2867.97,3066.00,351.18,327.49,19.99,0000 0000 0000 0000 000000
2014-04-25 01:40:17,-0.03,1.84,0.00,15.30,22.59,24.39,6.15,30.42,997.57,2057.65,2748.03,2867.97,3065.99,349.64,326.05,19.99,0000 0000 0000 0000 000000
2014-04-25 01:41:18,-0.07,1.84,0.00,15.31,22.59,24.41,5.98,30.17,997.57,2057.47,2748.01,2867.92,3065.97,350.92,327.23,20.00,0000 0000 0000 0000 000000
2014-04-25 01:42:18,-0.12,1.84,0.00,15.30,22.59,24.41,6.22,30.29,997.57,2057.45,2748.00,2867.75,3065.96,349.94,326.33,20.01,0000 0000 0000 0000 000000
2014-04-25 01:43:18,0.03,1.84,0.00,15.31,22.59,24.41,5.94,30.29,997.57,2057.44,2748.00,2867.62,3065.91,349.13,325.27,20.01,0000 0000 0000 0000 000000
2014-04-25 01:44:18,0.04,1.84,0.00,15.35,22.60,24.39,6.38,30.46,997.58,2057.27,2748.00,2867.36,3065.57,351.58,327.96,20.02,0000 0000 0000 0000 000000
2014-04-25 01:45:19,-0.01,1.84,0.00,15.39,22.60,24.38,6.16,30.08,997.57,2057.21,2747.97,2867.18,3065.31,350.98,326.18,20.02,0000 0000 0000 0000 000000
2014-04-25 01:46:19,0.03,1.84,0.00,15.43,22.62,24.36,5.88,30.04,997.57,2057.21,2747.92,2867.08,3065.16,349.55,325.82,20.03,0000 0000 0000 0000 000000
2014-04-25 01:47:19,0.04,1.84,0.00,15.47,22.62,24.38,6.34,30.38,997.57,2057.19,2747.73,2867.03,3065.09,350.63,326.59,20.04,0000 0000 0000 0000 000000
2014-04-25 01:48:20,0.06,1.84,0.00,15.51,22.62,24.43,6.04,30.17,997.57,2057.12,2747.39,2867.01,3065.04,350.20,325.80,20.04,0000 0000 0000 0000 000000
2014-04-25 01:49:20,0.00,1.84,0.00,15.54,22.62,24.51,6.12,30.38,997.57,2057.10,2747.15,2867.00,3065.01,350.12,326.43,20.05,0000 0000 0000 0000 000000
2014-04-25 01:50:20,0.05,1.84,0.00,15.56,22.62,24.50,6.00,30.25,997.57,2057.15,2747.05,2867.00,3065.00,349.31,325.48,20.05,0000 0000 0000 0000 000000
2014-04-25 01:51:20,0.04,1.84,0.00,15.58,22.64,24.56,5.99,30.25,997.57,2057.17,2747.02,2867.00,3065.00,349.72,325.63,20.06,0000 0000 0000 0000 000000
2014-04-25 01:52:21,0.02,1.84,0.00,15.63,22.64,24.61,5.93,30.25,997.57,2057.13,2747.00,2867.00,3065.00,349.58,325.59,20.06,0000 0000 0000 0000 000000
2014-04-25 01:53:21,-0.05,1.84,0.00,15.66,22.64,24.63,5.89,30.04,997.57,2057.11,2747.00,2867.00,3064.99,349.58,325.68,20.07,0000 0000 0000 0000 000000
2014-04-25 01:54:21,0.00,1.84,0.00,15.69,22.64,24.64,6.23,30.42,997.57,2057.09,2747.00,2866.99,3064.98,350.24,326.40,20.08,0000 0000 0000 0000 000000
2014-04-25 01:55:21,0.01,1.84,0.00,15.69,22.65,24.73,6.27,30.42,997.57,2057.11,2746.98,2866.88,3064.96,350.32,326.10,20.08,0000 0000 0000 0000 000000
2014-04-25 01:56:22,0.05,1.84,0.00,15.70,22.65,24.81,5.89,30.08,997.57,2057.15,2746.96,2866.80,3064.87,350.88,326.76,20.09,0000 0000 0000 0000 000000
2014-04-25 01:57:22,0.06,1.84,0.00,15.73,22.67,24.79,6.02,30.17,997.57,2057.09,2746.88,2866.62,3064.72,349.48,325.41,20.09,0000 0000 0000 0000 000000
2014-04-25 01:58:22,0.05,1.84,0.00,15.74,22.67,24.81,5.97,30.29,997.57,2057.07,2746.54,2866.35,3064.42,350.13,326.01,20.10,0000 0000 0000 0000 000000
2014-04-25 01:59:22,0.16,1.84,0.00,15.76,22.67,24.86,6.20,30.54,997.57,2057.05,2746.28,2866.16,3064.21,350.46,326.29,20.11,0000 0000 0000 0000 000000
2014-04-25 02:00:22,0.09,1.84,0.00,15.75,22.67,24.88,6.02,30.50,997.57,2057.05,2746.15,2866.07,3064.11,349.79,325.68,20.11,0000 0000 0000 0000 000000
2014-04-25 02:01:23,0.05,1.84,0.00,15.74,22.69,24.89,6.28,30.33,997.57,2057.03,2746.07,2866.04,3064.07,350.91,326.73,20.12,0000 0000 0000 0000 000000
2014-04-25 02:02:23,0.02,1.84,0.00,15.72,22.69,24.90,6.09,30.46,997.59,2057.03,2746.03,2866.02,3064.02,349.68,325.61,20.12,0000 0000 0000 0000 000000
2014-04-25 02:03:24,0.01,1.84,0.00,15.73,22.69,24.90,6.11,30.46,997.58,2057.05,2746.01,2866.00,3064.00,350.33,325.49,20.13,0000 0000 0000 0000 000000
2014-04-25 02:04:24,0.02,1.84,0.00,15.72,22.69,24.91,6.03,30.42,997.59,2057.05,2746.00,2866.00,3064.00,349.81,325.81,20.14,0000 0000 0000 0000 000000
2014-04-25 02:05:24,-0.00,1.84,0.00,15.72,22.69,24.92,6.09,30.42,997.58,2057.03,2746.00,2866.00,3064.00,349.91,326.22,20.14,0000 0000 0000 0000 000000
2014-04-25 02:06:24,-0.01,1.84,0.00,15.72,22.71,24.96,6.06,30.21,997.59,2057.01,2746.00,2866.00,3064.00,349.21,325.18,20.15,0000 0000 0000 0000 000000
2014-04-25 02:07:24,0.00,1.84,0.00,15.76,22.72,25.00,6.15,30.33,997.58,2057.02,2745.98,2865.97,3063.98,350.12,325.98,20.15,0000 0000 0000 0000 000000
2014-04-25 02:08:25,0.02,1.84,0.00,15.81,22.72,25.08,6.05,30.21,997.58,2057.01,2745.97,2865.91,3063.97,350.07,325.88,20.16,0000 0000 0000 0000 000000
2014-04-25 02:09:25,0.02,1.84,0.00,15.79,22.72,25.00,6.08,30.04,997.58,2057.00,2745.80,2865.83,3063.85,350.30,326.09,20.16,0000 0000 0000 0000 000000
2014-04-25 02:10:25,0.07,1.85,0.00,15.80,22.72,25.01,6.06,30.42,997.57,2057.00,2745.52,2865.67,3063.69,350.16,325.60,20.17,0000 0000 0000 0000 000000
2014-04-25 02:11:26,0.12,1.85,0.00,15.76,22.74,25.09,6.07,30.38,997.58,2057.00,2745.26,2865.40,3063.38,350.91,326.70,20.18,0000 0000 0000 0000 000000
2014-04-25 02:12:26,0.14,1.85,0.00,15.72,22.74,25.02,6.22,30.38,997.57,2057.00,2745.12,2865.20,3063.18,350.21,326.59,20.18,0000 0000 0000 0000 000000
2014-04-25 02:13:26,0.09,1.85,0.00,15.75,22.74,25.02,6.28,30.38,997.58,2057.00,2745.04,2865.13,3063.09,350.18,326.09,20.19,0000 0000 0000 0000 000000
2014-04-25 02:14:26,0.04,1.85,0.00,15.77,22.75,25.08,6.10,30.21,997.59,2057.00,2745.01,2865.06,3063.04,349.54,325.45,20.19,0000 0000 0000 0000 000000
2014-04-25 02:15:27,0.02,1.85,0.00,15.74,22.75,25.07,6.00,30.25,997.58,2057.00,2745.00,2865.02,3063.01,350.53,326.77,20.20,0000 0000 0000 0000 000000
2014-04-25 02:16:27,0.01,1.85,0.00,15.75,22.77,25.11,6.04,30.33,997.58,2057.00,2745.00,2865.00,3063.00,349.51,325.43,20.21,0000 0000 0000 0000 000000
2014-04-25 02:17:27,0.00,1.85,0.00,15.80,22.77,25.07,6.09,30.46,997.59,2057.00,2745.00,2865.00,3062.99,350.23,326.04,20.21,0000 0000 0000 0000 000000
2014-04-25 02:18:27,0.00,1.85,0.00,15.80,22.77,25.08,6.02,30.38,997.61,2057.00,2745.00,2865.00,3062.99,349.19,325.08,20.22,0000 0000 0000 0000 000000
2014-04-25 02:19:28,0.00,1.85,0.00,15.77,22.78,25.05,6.13,30.42,997.60,2057.00,2744.98,2865.00,3062.98,349.92,325.78,20.22,0000 0000 0000 0000 000000
2014-04-25 02:20:28,0.00,1.85,0.00,15.81,22.79,25.08,6.11,30.29,997.62,2057.00,2744.98,2864.98,3062.96,349.93,325.77,20.23,0000 0000 0000 0000 000000
2014-04-25 02:21:28,0.02,1.85,0.00,15.81,22.79,25.13,6.20,30.46,997.61,2057.00,2744.83,2864.97,3062.91,350.45,326.22,20.23,0000 0000 0000 0000 000000
2014-04-25 02:22:28,0.03,1.85,0.00,15.77,22.79,25.12,6.07,30.33,997.63,2057.00,2744.70,2864.94,3062.69,349.91,326.02,20.24,0000 0000 0000 0000 000000
2014-04-25 02:23:29,0.07,1.85,0.00,15.79,22.80,25.19,5.98,30.29,997.65,2057.00,2744.39,2864.80,3062.43,350.44,326.05,20.25,0000 0000 0000 0000 000000
2014-04-25 02:24:29,0.13,1.85,0.00,15.83,22.81,25.17,6.17,30.42,997.69,2056.99,2744.21,2864.57,3062.24,350.51,326.30,20.25,0000 0000 0000 0000 000000
2014-04-25 02:25:29,0.11,1.85,0.00,15.87,22.82,25.13,6.08,30.29,997.74,2056.98,2744.14,2864.28,3062.13,350.24,326.09,20.26,0000 0000 0000 0000 000000
2014-04-25 02:26:30,0.09,1.85,0.00,15.83,22.82,25.18,6.00,30.29,997.74,2056.95,2744.05,2864.10,3062.05,349.97,325.72,20.26,0000 0000 0000 0000 000000
2014-04-25 02:27:30,0.04,1.85,0.00,15.85,22.82,25.25,6.18,30.38,997.81,2056.93,2744.02,2864.04,3062.02,350.02,325.86,20.27,0000 0000 0000 0000 000000
2014-04-25 02:28:30,0.02,1.85,0.00,15.86,22.83,25.28,6.34,30.33,997.84,2056.96,2744.00,2864.03,3062.00,351.04,326.52,20.28,0000 0000 0000 0000 000000
2014-04-25 02:29:30,0.03,1.85,0.00,15.86,22.84,25.29,6.03,30.21,997.84,2056.97,2744.00,2864.01,3062.00,350.10,325.93,20.28,0000 0000 0000 0000 000000
2014-04-25 02:30:31,0.01,1.85,0.00,15.86,22.84,25.22,6.05,30.17,997.82,2056.98,2744.00,2864.01,3062.00,350.05,325.24,20.29,0000 0000 0000 0000 000000
2014-04-25 02:31:31,0.00,1.85,0.00,15.88,22.85,25.29,6.02,30.13,997.79,2056.98,2744.00,2864.00,3061.99,350.34,326.12,20.29,0000 0000 0000 0000 000000
2014-04-25 02:32:31,0.00,1.85,0.00,15.89,22.85,25.37,6.03,30.17,997.90,2056.97,2743.98,2864.00,3061.97,350.27,325.59,20.30,0000 0000 0000 0000 000000
2014-04-25 02:33:32,-0.01,1.85,0.00,15.88,22.87,25.25,6.07,30.25,997.92,2056.93,2743.97,2864.00,3061.96,349.86,326.37,20.31,0000 0000 0000 0000 000000
2014-04-25 02:34:32,-0.02,1.85,0.00,15.88,22.87,25.29,6.25,30.50,997.92,2056.91,2743.84,2864.00,3061.92,350.54,326.34,20.31,0000 0000 0000 0000 000000
2014-04-25 02:35:32,0.01,1.85,0.00,15.88,22.87,25.20,6.23,30.21,997.88,2056.88,2743.57,2864.00,3061.81,351.13,326.89,20.32,0000 0000 0000 0000 000000
2014-04-25 02:36:33,0.03,1.85,0.00,15.87,22.87,25.17,5.99,30.29,997.92,2056.84,2743.33,2863.99,3061.55,350.54,326.81,20.32,0000 0000 0000 0000 000000
2014-04-25 02:37:33,0.05,1.85,0.00,15.88,22.89,25.17,6.02,30.25,997.95,2056.80,2743.23,2863.91,3061.34,350.25,326.09,20.33,0000 0000 0000 0000 000000